Flag for Rwanda Weather past 2 weeks in Kigali, Rwanda

Now
77 °F

Thunderstorms. Scattered clouds.


Feels Like: 79 °F
Forecast: 62 / 85 °F
Wind: 7 mph from Northeast

Location: Kigali Airport

Current Time: Mar 3, 2015 at 12:01:06 PM

Latest Report: Mar 3, 2015 at 11:30 AM


Visibility: 4 mi

Pressure: 30.15 "Hg

Humidity: 65%

Dew point: 64 °F

Location of KigaliLocation

Historic Weather in Kigali — Graph

°F

Kigali temperature yesterday

Maximum temperature yesterday: 82 °F (at 1:30 PM)
Minimum temperature yesterday: 61 °F (at 5:30 AM)
Average temperature yesterday: 72 °F

Past Weeks' High & Low Weather Summary

 TemperatureHumidityPressure
High86 °F (Feb 22, 12:30 PM)100% (Feb 17, 4:00 AM)30.74 "Hg (Feb 17, 4:00 AM)
Low59 °F (Feb 21, 4:00 AM)43% (Feb 22, 1:00 PM)29.95 "Hg (Feb 19, 4:00 PM)
Average70 °F82%30.08 "Hg
* Reported Feb 16 11:00 AM — Mar 3 11:00 AM, Kigali, Weather by CustomWeather, © 2015

Note: Actual official high and low records may vary slightly from our data, if they occured in-between our weather recording intervals... More about our weather records

Advertising

Kigali weather history for previous 24 hours

 ConditionsComfort  
Time TempWeatherWind HumidityBarometerVisibility
11:00 AM
Tue, Mar 3
77 °FThunderstorms. Scattered clouds.No wind65%30.15 "HgN/A
10:30 AM73 °FScattered clouds.No wind78%30.15 "Hg6 mi
10:00 AM73 °FBroken clouds.No wind83%30.18 "Hg5 mi
9:30 AM73 °FScattered clouds.No wind78%30.18 "Hg5 mi
9:00 AM73 °FScattered clouds.No wind78%30.15 "Hg5 mi
8:30 AM72 °FScattered clouds.No wind83%30.12 "Hg5 mi
8:00 AM68 °FScattered clouds.No wind94%30.12 "Hg5 mi
7:30 AM68 °FScattered clouds.No wind94%30.12 "Hg5 mi
7:00 AM66 °FScattered clouds.No wind94%30.09 "Hg5 mi
6:30 AM64 °FPartly sunny.3 mph100%30.09 "Hg5 mi
6:00 AM64 °FPassing clouds.3 mph100%30.09 "Hg5 mi
5:30 AM64 °FPassing clouds.No wind100%30.09 "HgN/A
5:00 AM64 °FPassing clouds.No wind100%30.07 "HgN/A
4:30 AM64 °FPassing clouds.3 mph100%30.07 "HgN/A
4:00 AM64 °FPassing clouds.No wind100%30.07 "HgN/A
3:30 AM66 °FPassing clouds.3 mph94%30.07 "HgN/A
3:00 AM66 °FPassing clouds.3 mph94%30.04 "HgN/A
2:30 AM66 °FPassing clouds.No wind94%30.04 "HgN/A
2:00 AM68 °FPassing clouds.3 mph88%30.04 "HgN/A
1:30 AM68 °FPassing clouds.No wind88%30.07 "HgN/A
1:00 AM68 °FPassing clouds.5 mph88%30.07 "HgN/A
12:30 AM68 °FPassing clouds.No wind94%30.09 "HgN/A
11:30 PM
Mon, Mar 2
70 °FPassing clouds.No wind83%30.09 "HgN/A
11:00 PM72 °FPassing clouds.3 mph78%30.09 "HgN/A
10:30 PM73 °FPassing clouds.3 mph74%30.09 "HgN/A
10:00 PM72 °FPassing clouds.No wind78%30.07 "HgN/A
9:30 PM73 °FPassing clouds.3 mph78%30.09 "HgN/A
9:00 PM75 °FPassing clouds.No wind74%30.07 "HgN/A
8:30 PM75 °FPassing clouds.5 mph69%30.07 "HgN/A
8:00 PM77 °FPassing clouds.5 mph65%30.07 "HgN/A
7:30 PM77 °FPassing clouds.5 mph61%30.04 "HgN/A
7:00 PM79 °FPassing clouds.5 mph58%30.01 "HgN/A
6:30 PM81 °FPassing clouds.5 mph54%30.01 "HgN/A
6:00 PM81 °FScattered clouds.5 mph51%30.01 "HgN/A
5:30 PM82 °FScattered clouds.5 mph48%30.01 "HgN/A
5:00 PM82 °FScattered clouds.7 mph48%30.01 "HgN/A
4:30 PM82 °FScattered clouds.7 mph51%30.01 "HgN/A
4:00 PM82 °FScattered clouds.7 mph51%30.01 "HgN/A
3:30 PM82 °FPartly sunny.7 mph51%30.01 "HgN/A
3:00 PM81 °FPartly sunny.7 mph54%30.01 "HgN/A
2:30 PM81 °FPartly sunny.7 mph58%30.04 "HgN/A
2:00 PM81 °FPartly sunny.7 mph58%30.04 "HgN/A
1:30 PM82 °FScattered clouds.7 mph55%30.07 "HgN/A
1:00 PM81 °FScattered clouds.6 mph62%30.07 "HgN/A
12:30 PM79 °FScattered clouds.6 mph61%30.09 "HgN/A
12:00 PM79 °FScattered clouds.6 mph65%30.12 "HgN/A
Weather by CustomWeather, © 2015

See weather overviewHow to use our weather pages